Year,Month,Day,Hour,Minute,Value (Times are PST for temperature in C)
2012,07,25,00,00,13.40
2012,07,25,00,01,13.30
2012,07,25,00,02,13.30
2012,07,25,00,03,13.30
2012,07,25,00,04,13.30
2012,07,25,00,05,13.30
2012,07,25,00,06,13.30
2012,07,25,00,07,13.30
2012,07,25,00,08,13.30
2012,07,25,00,09,13.30
2012,07,25,00,10,13.30
2012,07,25,00,11,13.30
2012,07,25,00,12,13.30
2012,07,25,00,13,13.30
2012,07,25,00,14,13.30
2012,07,25,00,15,13.30
2012,07,25,00,16,13.20
2012,07,25,00,17,13.20
2012,07,25,00,18,13.20
2012,07,25,00,19,13.20
2012,07,25,00,20,13.20
2012,07,25,00,21,13.20
2012,07,25,00,22,13.20
2012,07,25,00,23,13.20
2012,07,25,00,24,13.20
2012,07,25,00,25,13.20
2012,07,25,00,26,13.20
2012,07,25,00,27,13.20
2012,07,25,00,28,13.10
2012,07,25,00,29,13.10
2012,07,25,00,30,13.10
2012,07,25,00,31,13.10
2012,07,25,00,32,13.10
2012,07,25,00,33,13.10
2012,07,25,00,34,13.10
2012,07,25,00,35,13.10
2012,07,25,00,36,13.10
2012,07,25,00,37,13.10
2012,07,25,00,38,13.10
2012,07,25,00,39,13.10
2012,07,25,00,40,13.00
2012,07,25,00,41,13.00
2012,07,25,00,42,13.00
2012,07,25,00,43,13.00
2012,07,25,00,44,13.00
2012,07,25,00,45,13.00
2012,07,25,00,46,12.90
2012,07,25,00,47,12.90
2012,07,25,00,48,12.90
2012,07,25,00,49,12.90
2012,07,25,00,50,12.90
2012,07,25,00,51,12.90
2012,07,25,00,52,12.90
2012,07,25,00,53,12.90
2012,07,25,00,54,12.80
2012,07,25,00,55,12.80
2012,07,25,00,56,12.80
2012,07,25,00,57,12.80
2012,07,25,00,58,12.80
2012,07,25,00,59,12.80
2012,07,25,01,00,12.80
2012,07,25,01,01,12.80
2012,07,25,01,02,12.80
2012,07,25,01,03,12.80
2012,07,25,01,04,12.80
2012,07,25,01,05,12.80
2012,07,25,01,06,12.80
2012,07,25,01,07,12.80
2012,07,25,01,08,12.70
2012,07,25,01,09,12.70
2012,07,25,01,10,12.70
2012,07,25,01,11,12.70
2012,07,25,01,12,12.70
2012,07,25,01,13,12.70
2012,07,25,01,14,12.70
2012,07,25,01,15,12.70
2012,07,25,01,16,12.70
2012,07,25,01,17,12.70
2012,07,25,01,18,12.70
2012,07,25,01,19,12.60
2012,07,25,01,20,12.60
2012,07,25,01,21,12.60
2012,07,25,01,22,12.60
2012,07,25,01,23,12.60
2012,07,25,01,24,12.60
2012,07,25,01,25,12.50
2012,07,25,01,26,12.50
2012,07,25,01,27,12.50
2012,07,25,01,28,12.50
2012,07,25,01,29,12.50
2012,07,25,01,30,12.50
2012,07,25,01,31,12.50
2012,07,25,01,32,12.40
2012,07,25,01,33,12.40
2012,07,25,01,34,12.40
2012,07,25,01,35,12.40
2012,07,25,01,36,12.50
2012,07,25,01,37,12.50
2012,07,25,01,38,12.50
2012,07,25,01,39,12.50
2012,07,25,01,40,12.50
2012,07,25,01,41,12.50
2012,07,25,01,42,12.50
2012,07,25,01,43,12.50
2012,07,25,01,44,12.50
2012,07,25,01,45,12.50
2012,07,25,01,46,12.50
2012,07,25,01,47,12.50
2012,07,25,01,48,12.50
2012,07,25,01,49,12.50
2012,07,25,01,50,12.40
2012,07,25,01,51,12.40
2012,07,25,01,52,12.40
2012,07,25,01,53,12.40
2012,07,25,01,54,12.40
2012,07,25,01,55,12.40
2012,07,25,01,56,12.40
2012,07,25,01,57,12.40
2012,07,25,01,58,12.40
2012,07,25,01,59,12.40
2012,07,25,02,00,12.40
2012,07,25,02,01,12.30
2012,07,25,02,02,12.30
2012,07,25,02,03,12.30
2012,07,25,02,04,12.30
2012,07,25,02,05,12.30
2012,07,25,02,06,12.30
2012,07,25,02,07,12.30
2012,07,25,02,08,12.30
2012,07,25,02,09,12.30
2012,07,25,02,10,12.30
2012,07,25,02,11,12.30
2012,07,25,02,12,12.30
2012,07,25,02,13,12.30
2012,07,25,02,14,12.30
2012,07,25,02,15,12.20
2012,07,25,02,16,12.20
2012,07,25,02,17,12.20
2012,07,25,02,18,12.20
2012,07,25,02,19,12.20
2012,07,25,02,20,12.20
2012,07,25,02,21,12.20
2012,07,25,02,22,12.20
2012,07,25,02,23,12.20
2012,07,25,02,24,12.10
2012,07,25,02,25,12.10
2012,07,25,02,26,12.10
2012,07,25,02,27,12.10
2012,07,25,02,28,12.10
2012,07,25,02,29,12.10
2012,07,25,02,30,12.10
2012,07,25,02,31,12.10
2012,07,25,02,32,12.10
2012,07,25,02,33,12.00
2012,07,25,02,34,12.00
2012,07,25,02,35,12.00
2012,07,25,02,36,12.00
2012,07,25,02,37,12.00
2012,07,25,02,38,12.00
2012,07,25,02,39,12.00
2012,07,25,02,40,12.00
2012,07,25,02,41,12.00
2012,07,25,02,42,12.00
2012,07,25,02,43,12.00
2012,07,25,02,44,12.00
2012,07,25,02,45,11.90
2012,07,25,02,46,11.90
2012,07,25,02,47,11.90
2012,07,25,02,48,11.90
2012,07,25,02,49,11.90
2012,07,25,02,50,11.90
2012,07,25,02,51,11.90
2012,07,25,02,52,11.90
2012,07,25,02,53,11.90
2012,07,25,02,54,11.80
2012,07,25,02,55,11.80
2012,07,25,02,56,11.80
2012,07,25,02,57,11.80
2012,07,25,02,58,11.80
2012,07,25,02,59,11.80
2012,07,25,03,00,11.80
2012,07,25,03,01,11.80
2012,07,25,03,02,11.80
2012,07,25,03,03,11.80
2012,07,25,03,04,11.80
2012,07,25,03,05,11.80
2012,07,25,03,06,11.80
2012,07,25,03,07,11.80
2012,07,25,03,08,11.80
2012,07,25,03,09,11.80
2012,07,25,03,10,11.80
2012,07,25,03,11,11.80
2012,07,25,03,12,11.80
2012,07,25,03,13,11.80
2012,07,25,03,14,11.80
2012,07,25,03,15,11.80
2012,07,25,03,16,11.80
2012,07,25,03,17,11.80
2012,07,25,03,18,11.80
2012,07,25,03,19,11.70
2012,07,25,03,20,11.70
2012,07,25,03,21,11.70
2012,07,25,03,22,11.70
2012,07,25,03,23,11.70
2012,07,25,03,24,11.70
2012,07,25,03,25,11.70
2012,07,25,03,26,11.70
2012,07,25,03,27,11.70
2012,07,25,03,28,11.60
2012,07,25,03,29,11.60
2012,07,25,03,30,11.60
2012,07,25,03,31,11.60
2012,07,25,03,32,11.60
2012,07,25,03,33,11.60
2012,07,25,03,34,11.60
2012,07,25,03,35,11.60
2012,07,25,03,36,11.60
2012,07,25,03,37,11.60
2012,07,25,03,38,11.60
2012,07,25,03,39,11.60
2012,07,25,03,40,11.60
2012,07,25,03,41,11.60
2012,07,25,03,42,11.60
2012,07,25,03,43,11.60
2012,07,25,03,44,11.60
2012,07,25,03,45,11.60
2012,07,25,03,46,11.60
2012,07,25,03,47,11.60
2012,07,25,03,48,11.60
2012,07,25,03,49,11.60
2012,07,25,03,50,11.60
2012,07,25,03,51,11.60
2012,07,25,03,52,11.50
2012,07,25,03,53,11.40
2012,07,25,03,54,11.40
2012,07,25,03,55,11.40
2012,07,25,03,56,11.40
2012,07,25,03,57,11.40
2012,07,25,03,58,11.40
2012,07,25,03,59,11.40
2012,07,25,04,00,11.40
2012,07,25,04,01,11.40
2012,07,25,04,02,11.40
2012,07,25,04,03,11.40
2012,07,25,04,04,11.40
2012,07,25,04,05,11.40
2012,07,25,04,06,11.40
2012,07,25,04,07,11.40
2012,07,25,04,08,11.40
2012,07,25,04,09,11.40
2012,07,25,04,10,11.40
2012,07,25,04,11,11.40
2012,07,25,04,12,11.30
2012,07,25,04,13,11.30
2012,07,25,04,14,11.30
2012,07,25,04,15,11.30
2012,07,25,04,16,11.20
2012,07,25,04,17,11.20
2012,07,25,04,18,11.20
2012,07,25,04,19,11.20
2012,07,25,04,20,11.20
2012,07,25,04,21,11.20
2012,07,25,04,22,11.10
2012,07,25,04,23,11.10
2012,07,25,04,24,11.10
2012,07,25,04,25,11.10
2012,07,25,04,26,11.10
2012,07,25,04,27,11.10
2012,07,25,04,28,11.10
2012,07,25,04,29,11.10
2012,07,25,04,30,11.10
2012,07,25,04,31,11.10
2012,07,25,04,32,11.10
2012,07,25,04,33,11.10
2012,07,25,04,34,11.10
2012,07,25,04,35,11.10
2012,07,25,04,36,11.10
2012,07,25,04,37,11.10
2012,07,25,04,38,11.10
2012,07,25,04,39,11.10
2012,07,25,04,40,11.10
2012,07,25,04,41,11.10
2012,07,25,04,42,11.10
2012,07,25,04,43,11.10
2012,07,25,04,44,11.10
2012,07,25,04,45,11.10
2012,07,25,04,46,11.10
2012,07,25,04,47,11.10
2012,07,25,04,48,11.10
2012,07,25,04,49,11.10
2012,07,25,04,50,11.10
2012,07,25,04,51,11.10
2012,07,25,04,52,11.10
2012,07,25,04,53,11.10
2012,07,25,04,54,11.10
2012,07,25,04,55,11.10
2012,07,25,04,56,11.10
2012,07,25,04,57,11.10
2012,07,25,04,58,11.10
2012,07,25,04,59,11.10
2012,07,25,05,00,11.10
2012,07,25,05,01,11.10
2012,07,25,05,02,11.10
2012,07,25,05,03,11.10
2012,07,25,05,04,11.10
2012,07,25,05,05,11.20
2012,07,25,05,06,11.20
2012,07,25,05,07,11.20
2012,07,25,05,08,11.20
2012,07,25,05,09,11.20
2012,07,25,05,10,11.20
2012,07,25,05,11,11.30
2012,07,25,05,12,11.30
2012,07,25,05,13,11.30
2012,07,25,05,14,11.30
2012,07,25,05,15,11.30
2012,07,25,05,16,11.30
2012,07,25,05,17,11.40
2012,07,25,05,18,11.40
2012,07,25,05,19,11.40
2012,07,25,05,20,11.40
2012,07,25,05,21,11.40
2012,07,25,05,22,11.40
2012,07,25,05,23,11.40
2012,07,25,05,24,11.40
2012,07,25,05,25,11.40
2012,07,25,05,26,11.40
2012,07,25,05,27,11.40
2012,07,25,05,28,11.40
2012,07,25,05,29,11.40
2012,07,25,05,30,11.40
2012,07,25,05,31,11.40
2012,07,25,05,32,11.40
2012,07,25,05,33,11.30
2012,07,25,05,34,11.30
2012,07,25,05,35,11.30
2012,07,25,05,36,11.30
2012,07,25,05,37,11.30
2012,07,25,05,38,11.30
2012,07,25,05,39,11.30
2012,07,25,05,40,11.20
2012,07,25,05,41,11.20
2012,07,25,05,42,11.20
2012,07,25,05,43,11.20
2012,07,25,05,44,11.20
2012,07,25,05,45,11.20
2012,07,25,05,46,11.20
2012,07,25,05,47,11.20
2012,07,25,05,48,11.20
2012,07,25,05,49,11.20
2012,07,25,05,50,11.20
2012,07,25,05,51,11.20
2012,07,25,05,52,11.20
2012,07,25,05,53,11.30
2012,07,25,05,54,11.30
2012,07,25,05,55,11.30
2012,07,25,05,56,11.30
2012,07,25,05,57,11.30
2012,07,25,05,58,11.30
2012,07,25,05,59,11.30
2012,07,25,06,00,11.30
2012,07,25,06,01,11.30
2012,07,25,06,02,11.30
2012,07,25,06,03,11.30
2012,07,25,06,04,11.30
2012,07,25,06,05,11.30
2012,07,25,06,06,11.30
2012,07,25,06,07,11.30
2012,07,25,06,08,11.30
2012,07,25,06,09,11.30
2012,07,25,06,10,11.30
2012,07,25,06,11,11.30
2012,07,25,06,12,11.30
2012,07,25,06,13,11.40
2012,07,25,06,14,11.40
2012,07,25,06,15,11.40
2012,07,25,06,16,11.40
2012,07,25,06,17,11.40
2012,07,25,06,18,11.40
2012,07,25,06,19,11.40
2012,07,25,06,20,11.40
2012,07,25,06,21,11.40
2012,07,25,06,22,11.40
2012,07,25,06,23,11.40
2012,07,25,06,24,11.40
2012,07,25,06,25,11.40
2012,07,25,06,26,11.40
2012,07,25,06,27,11.40
2012,07,25,06,28,11.50
2012,07,25,06,29,11.60
2012,07,25,06,30,11.60
2012,07,25,06,31,11.60
2012,07,25,06,32,11.60
2012,07,25,06,33,11.60
2012,07,25,06,34,11.70
2012,07,25,06,35,11.70
2012,07,25,06,36,11.80
2012,07,25,06,37,11.80
2012,07,25,06,38,11.80
2012,07,25,06,39,11.90
2012,07,25,06,40,12.00
2012,07,25,06,41,12.00
2012,07,25,06,42,12.10
2012,07,25,06,43,12.10
2012,07,25,06,44,12.20
2012,07,25,06,45,12.20
2012,07,25,06,46,12.20
2012,07,25,06,47,12.20
2012,07,25,06,48,12.30
2012,07,25,06,49,12.30
2012,07,25,06,50,12.30
2012,07,25,06,51,12.30
2012,07,25,06,52,12.40
2012,07,25,06,53,12.40
2012,07,25,06,54,12.50
2012,07,25,06,55,12.50
2012,07,25,06,56,12.60
2012,07,25,06,57,12.60
2012,07,25,06,58,12.70
2012,07,25,06,59,12.70
2012,07,25,07,00,12.80
2012,07,25,07,01,12.80
2012,07,25,07,02,12.90
2012,07,25,07,03,13.00
2012,07,25,07,04,13.00
2012,07,25,07,05,13.10
2012,07,25,07,06,13.20
2012,07,25,07,07,13.30
2012,07,25,07,08,13.30
2012,07,25,07,09,13.30
2012,07,25,07,10,13.40
2012,07,25,07,11,13.50
2012,07,25,07,12,13.50
2012,07,25,07,13,13.60
2012,07,25,07,14,13.70
2012,07,25,07,15,13.70
2012,07,25,07,16,13.80
2012,07,25,07,17,13.90
2012,07,25,07,18,13.90
2012,07,25,07,19,14.00
2012,07,25,07,20,14.10
2012,07,25,07,21,14.20
2012,07,25,07,22,14.20
2012,07,25,07,23,14.30
2012,07,25,07,24,14.40
2012,07,25,07,25,14.50
2012,07,25,07,26,14.60
2012,07,25,07,27,14.60
2012,07,25,07,28,14.70
2012,07,25,07,29,14.80
2012,07,25,07,30,14.90
2012,07,25,07,31,15.00
2012,07,25,07,32,15.10
2012,07,25,07,33,15.20
2012,07,25,07,34,15.30
2012,07,25,07,35,15.40
2012,07,25,07,36,15.50
2012,07,25,07,37,15.50
2012,07,25,07,38,15.60
2012,07,25,07,39,15.60
2012,07,25,07,40,15.60
2012,07,25,07,41,15.70
2012,07,25,07,42,15.80
2012,07,25,07,43,15.80
2012,07,25,07,44,15.80
2012,07,25,07,45,15.90
2012,07,25,07,46,16.00
2012,07,25,07,47,16.10
2012,07,25,07,48,16.10
2012,07,25,07,49,16.20
2012,07,25,07,50,16.20
2012,07,25,07,51,16.30
2012,07,25,07,52,16.30
2012,07,25,07,53,16.40
2012,07,25,07,54,16.50
2012,07,25,07,55,16.60
2012,07,25,07,56,16.70
2012,07,25,07,57,16.80
2012,07,25,07,58,16.90
2012,07,25,07,59,16.90
2012,07,25,08,00,17.00
2012,07,25,08,01,17.10
2012,07,25,08,02,17.20
2012,07,25,08,03,17.30
2012,07,25,08,04,17.40
2012,07,25,08,05,17.50
2012,07,25,08,06,17.60
2012,07,25,08,07,17.70
2012,07,25,08,08,17.70
2012,07,25,08,09,17.70
2012,07,25,08,10,17.70
2012,07,25,08,11,17.80
2012,07,25,08,12,17.90
2012,07,25,08,13,17.90
2012,07,25,08,14,18.00
2012,07,25,08,15,18.10
2012,07,25,08,16,18.10
2012,07,25,08,17,18.20
2012,07,25,08,18,18.20
2012,07,25,08,19,18.20
2012,07,25,08,20,18.30
2012,07,25,08,21,18.30
2012,07,25,08,22,18.40
2012,07,25,08,23,18.40
2012,07,25,08,24,18.40
2012,07,25,08,25,18.50
2012,07,25,08,26,18.50
2012,07,25,08,27,18.60
2012,07,25,08,28,18.70
2012,07,25,08,29,18.80
2012,07,25,08,30,18.80
2012,07,25,08,31,18.80
2012,07,25,08,32,18.80
2012,07,25,08,33,18.70
2012,07,25,08,34,18.70
2012,07,25,08,35,18.70
2012,07,25,08,36,18.70
2012,07,25,08,37,18.70
2012,07,25,08,38,18.70
2012,07,25,08,39,18.80
2012,07,25,08,40,18.80
2012,07,25,08,41,18.90
2012,07,25,08,42,18.90
2012,07,25,08,43,19.00
2012,07,25,08,44,19.10
2012,07,25,08,45,19.10
2012,07,25,08,46,19.10
2012,07,25,08,47,19.20
2012,07,25,08,48,19.20
2012,07,25,08,49,19.30
2012,07,25,08,50,19.30
2012,07,25,08,51,19.30
2012,07,25,08,52,19.40
2012,07,25,08,53,19.40
2012,07,25,08,54,19.30
2012,07,25,08,55,19.30
2012,07,25,08,56,19.20
2012,07,25,08,57,19.30
2012,07,25,08,58,19.30
2012,07,25,08,59,19.40
2012,07,25,09,00,19.40
2012,07,25,09,01,19.40
2012,07,25,09,02,19.30
2012,07,25,09,03,19.20
2012,07,25,09,04,19.10
2012,07,25,09,05,19.10
2012,07,25,09,06,19.10
2012,07,25,09,07,19.10
2012,07,25,09,08,19.20
2012,07,25,09,09,19.20
2012,07,25,09,10,19.30
2012,07,25,09,11,19.30
2012,07,25,09,12,19.40
2012,07,25,09,13,19.40
2012,07,25,09,14,19.50
2012,07,25,09,15,19.60
2012,07,25,09,16,19.50
2012,07,25,09,17,19.40
2012,07,25,09,18,19.30
2012,07,25,09,19,19.40
2012,07,25,09,20,19.40
2012,07,25,09,21,19.50
2012,07,25,09,22,19.50
2012,07,25,09,23,19.50
2012,07,25,09,24,19.60
2012,07,25,09,25,19.60
2012,07,25,09,26,19.50
2012,07,25,09,27,19.40
2012,07,25,09,28,19.50
2012,07,25,09,29,19.50
2012,07,25,09,30,19.50
2012,07,25,09,31,19.60
2012,07,25,09,32,19.70
2012,07,25,09,33,19.80
2012,07,25,09,34,19.80
2012,07,25,09,35,19.90
2012,07,25,09,36,19.90
2012,07,25,09,37,19.90
2012,07,25,09,38,20.00
2012,07,25,09,39,20.10
2012,07,25,09,40,20.20
2012,07,25,09,41,20.30
2012,07,25,09,42,20.40
2012,07,25,09,43,20.40
2012,07,25,09,44,20.40
2012,07,25,09,45,20.40
2012,07,25,09,46,20.30
2012,07,25,09,47,20.00
2012,07,25,09,48,19.90
2012,07,25,09,49,19.80
2012,07,25,09,50,19.60
2012,07,25,09,51,19.40
2012,07,25,09,52,19.20
2012,07,25,09,53,19.10
2012,07,25,09,54,19.00
2012,07,25,09,55,18.80
2012,07,25,09,56,18.70
2012,07,25,09,57,18.70
2012,07,25,09,58,18.60
2012,07,25,09,59,18.50
2012,07,25,10,00,18.30
2012,07,25,10,01,18.20
2012,07,25,10,02,18.20
2012,07,25,10,03,18.20
2012,07,25,10,04,18.30
2012,07,25,10,05,18.50
2012,07,25,10,06,18.50
2012,07,25,10,07,18.50
2012,07,25,10,08,18.50
2012,07,25,10,09,18.50
2012,07,25,10,10,18.60
2012,07,25,10,11,18.70
2012,07,25,10,12,18.80
2012,07,25,10,13,18.90
2012,07,25,10,14,18.90
2012,07,25,10,15,18.80
2012,07,25,10,16,18.90
2012,07,25,10,17,18.90
2012,07,25,10,18,18.90
2012,07,25,10,19,18.90
2012,07,25,10,20,18.90
2012,07,25,10,21,18.90
2012,07,25,10,22,18.80
2012,07,25,10,23,18.80
2012,07,25,10,24,18.80
2012,07,25,10,25,18.90
2012,07,25,10,26,18.90
2012,07,25,10,27,18.90
2012,07,25,10,28,18.90
2012,07,25,10,29,19.10
2012,07,25,10,30,19.10
2012,07,25,10,31,19.10
2012,07,25,10,32,19.30
2012,07,25,10,33,19.40
2012,07,25,10,34,19.40
2012,07,25,10,35,19.50
2012,07,25,10,36,19.50
2012,07,25,10,37,19.70
2012,07,25,10,38,19.70
2012,07,25,10,39,19.70
2012,07,25,10,40,19.80
2012,07,25,10,41,19.80
2012,07,25,10,42,19.80
2012,07,25,10,43,19.80
2012,07,25,10,44,19.90
2012,07,25,10,45,19.90
2012,07,25,10,46,19.90
2012,07,25,10,47,19.90
2012,07,25,10,48,19.90
2012,07,25,10,49,20.00
2012,07,25,10,50,20.10
2012,07,25,10,51,20.20
2012,07,25,10,52,20.20
2012,07,25,10,53,20.20
2012,07,25,10,54,20.30
2012,07,25,10,55,20.40
2012,07,25,10,56,20.50
2012,07,25,10,57,20.40
2012,07,25,10,58,20.40
2012,07,25,10,59,20.30
2012,07,25,11,00,20.30
2012,07,25,11,01,20.40
2012,07,25,11,02,20.40
2012,07,25,11,03,20.40
2012,07,25,11,04,20.30
2012,07,25,11,05,20.30
2012,07,25,11,06,20.40
2012,07,25,11,07,20.50
2012,07,25,11,08,20.60
2012,07,25,11,09,20.70
2012,07,25,11,10,20.70
2012,07,25,11,11,20.60
2012,07,25,11,12,20.50
2012,07,25,11,13,20.40
2012,07,25,11,14,20.30
2012,07,25,11,15,20.40
2012,07,25,11,16,20.40
2012,07,25,11,17,20.40
2012,07,25,11,18,20.50
2012,07,25,11,19,20.50
2012,07,25,11,20,20.60
2012,07,25,11,21,20.60
2012,07,25,11,22,20.70
2012,07,25,11,23,20.80
2012,07,25,11,24,20.90
2012,07,25,11,25,20.90
2012,07,25,11,26,20.80
2012,07,25,11,27,20.80
2012,07,25,11,28,20.80
2012,07,25,11,29,20.90
2012,07,25,11,30,21.00
2012,07,25,11,31,20.90
2012,07,25,11,32,20.80
2012,07,25,11,33,20.80
2012,07,25,11,34,20.80
2012,07,25,11,35,20.80
2012,07,25,11,36,20.80
2012,07,25,11,37,20.80
2012,07,25,11,38,20.90
2012,07,25,11,39,20.90
2012,07,25,11,40,20.80
2012,07,25,11,41,20.70
2012,07,25,11,42,20.60
2012,07,25,11,43,20.50
2012,07,25,11,44,20.40
2012,07,25,11,45,20.20
2012,07,25,11,46,20.20
2012,07,25,11,47,20.00
2012,07,25,11,48,19.90
2012,07,25,11,49,19.90
2012,07,25,11,50,19.80
2012,07,25,11,51,19.80
2012,07,25,11,52,19.80
2012,07,25,11,53,19.70
2012,07,25,11,54,19.70
2012,07,25,11,55,19.60
2012,07,25,11,56,19.70
2012,07,25,11,57,19.90
2012,07,25,11,58,20.00
2012,07,25,11,59,20.10
2012,07,25,12,00,20.20
2012,07,25,12,01,20.30
2012,07,25,12,02,20.30
2012,07,25,12,03,20.30
2012,07,25,12,04,20.40
2012,07,25,12,05,20.40
2012,07,25,12,06,20.30
2012,07,25,12,07,20.40
2012,07,25,12,08,20.50
2012,07,25,12,09,20.60
2012,07,25,12,10,20.60
2012,07,25,12,11,20.60
2012,07,25,12,12,20.50
2012,07,25,12,13,20.40
2012,07,25,12,14,20.50
2012,07,25,12,15,20.60
2012,07,25,12,16,20.70
2012,07,25,12,17,20.70
2012,07,25,12,18,20.70
2012,07,25,12,19,20.70
2012,07,25,12,20,20.70
2012,07,25,12,21,20.70
2012,07,25,12,22,20.60
2012,07,25,12,23,20.60
2012,07,25,12,24,20.70
2012,07,25,12,25,20.80
2012,07,25,12,26,20.80
2012,07,25,12,27,20.90
2012,07,25,12,28,21.00
2012,07,25,12,29,21.20
2012,07,25,12,30,21.30
2012,07,25,12,31,21.30
2012,07,25,12,32,21.20
2012,07,25,12,33,21.20
2012,07,25,12,34,21.30
2012,07,25,12,35,21.30
2012,07,25,12,36,21.40
2012,07,25,12,37,21.50
2012,07,25,12,38,21.60
2012,07,25,12,39,21.70
2012,07,25,12,40,21.90
2012,07,25,12,41,22.00
2012,07,25,12,42,22.00
2012,07,25,12,43,22.10
2012,07,25,12,44,22.10
2012,07,25,12,45,22.00
2012,07,25,12,46,21.90
2012,07,25,12,47,21.80
2012,07,25,12,48,21.50
2012,07,25,12,49,21.30
2012,07,25,12,50,21.30
2012,07,25,12,51,21.30
2012,07,25,12,52,21.40
2012,07,25,12,53,21.40
2012,07,25,12,54,21.40
2012,07,25,12,55,21.30
2012,07,25,12,56,21.30
2012,07,25,12,57,21.30
2012,07,25,12,58,21.20
2012,07,25,12,59,21.10
2012,07,25,13,00,21.00
2012,07,25,13,01,20.90
2012,07,25,13,02,20.90
2012,07,25,13,03,20.90
2012,07,25,13,04,21.00
2012,07,25,13,05,21.20
2012,07,25,13,06,21.20
2012,07,25,13,07,21.10
2012,07,25,13,08,21.10
2012,07,25,13,09,21.10
2012,07,25,13,10,21.10
2012,07,25,13,11,21.00
2012,07,25,13,12,20.90
2012,07,25,13,13,21.00
2012,07,25,13,14,21.00
2012,07,25,13,15,21.00
2012,07,25,13,16,21.00
2012,07,25,13,17,20.90
2012,07,25,13,18,20.80
2012,07,25,13,19,20.80
2012,07,25,13,20,20.90
2012,07,25,13,21,20.90
2012,07,25,13,22,21.10
2012,07,25,13,23,21.30
2012,07,25,13,24,21.30
2012,07,25,13,25,21.10
2012,07,25,13,26,20.90
2012,07,25,13,27,20.80
2012,07,25,13,28,20.80
2012,07,25,13,29,20.80
2012,07,25,13,30,20.90
2012,07,25,13,31,21.00
2012,07,25,13,32,21.10
2012,07,25,13,33,21.10
2012,07,25,13,34,21.00
2012,07,25,13,35,20.90
2012,07,25,13,36,20.80
2012,07,25,13,37,20.80
2012,07,25,13,38,20.80
2012,07,25,13,39,20.80
2012,07,25,13,40,20.80
2012,07,25,13,41,21.00
2012,07,25,13,42,21.10
2012,07,25,13,43,21.20
2012,07,25,13,44,21.10
2012,07,25,13,45,21.10
2012,07,25,13,46,21.10
2012,07,25,13,47,21.10
2012,07,25,13,48,21.00
2012,07,25,13,49,20.90
2012,07,25,13,50,21.00
2012,07,25,13,51,21.00
2012,07,25,13,52,20.90
2012,07,25,13,53,21.00
2012,07,25,13,54,21.00
2012,07,25,13,55,21.10
2012,07,25,13,56,21.10
2012,07,25,13,57,21.20
2012,07,25,13,58,21.30
2012,07,25,13,59,21.30
2012,07,25,14,00,21.30
2012,07,25,14,01,21.30
2012,07,25,14,02,21.30
2012,07,25,14,03,21.30
2012,07,25,14,04,21.30
2012,07,25,14,05,21.40
2012,07,25,14,06,21.50
2012,07,25,14,07,21.60
2012,07,25,14,08,21.60
2012,07,25,14,09,21.60
2012,07,25,14,10,21.60
2012,07,25,14,11,21.70
2012,07,25,14,12,21.90
2012,07,25,14,13,22.00
2012,07,25,14,14,22.20
2012,07,25,14,15,22.30
2012,07,25,14,16,22.30
2012,07,25,14,17,22.30
2012,07,25,14,18,22.20
2012,07,25,14,19,22.20
2012,07,25,14,20,22.20
2012,07,25,14,21,22.20
2012,07,25,14,22,22.30
2012,07,25,14,23,22.40
2012,07,25,14,24,22.40
2012,07,25,14,25,22.40
2012,07,25,14,26,22.30
2012,07,25,14,27,22.20
2012,07,25,14,28,22.20
2012,07,25,14,29,22.10
2012,07,25,14,30,22.20
2012,07,25,14,31,22.20
2012,07,25,14,32,22.30
2012,07,25,14,33,22.30
2012,07,25,14,34,22.20
2012,07,25,14,35,22.20
2012,07,25,14,36,22.20
2012,07,25,14,37,22.00
2012,07,25,14,38,21.90
2012,07,25,14,39,21.80
2012,07,25,14,40,21.70
2012,07,25,14,41,21.70
2012,07,25,14,42,21.60
2012,07,25,14,43,21.60
2012,07,25,14,44,21.60
2012,07,25,14,45,21.50
2012,07,25,14,46,21.40
2012,07,25,14,47,21.50
2012,07,25,14,48,21.60
2012,07,25,14,49,21.80
2012,07,25,14,50,21.90
2012,07,25,14,51,22.00
2012,07,25,14,52,22.10
2012,07,25,14,53,22.20
2012,07,25,14,54,22.30
2012,07,25,14,55,22.40
2012,07,25,14,56,22.50
2012,07,25,14,57,22.50
2012,07,25,14,58,22.50
2012,07,25,14,59,22.60
2012,07,25,15,00,22.70
2012,07,25,15,01,22.80
2012,07,25,15,02,22.90
2012,07,25,15,03,23.00
2012,07,25,15,04,23.10
2012,07,25,15,05,23.20
2012,07,25,15,06,23.20
2012,07,25,15,07,23.10
2012,07,25,15,08,22.90
2012,07,25,15,09,22.70
2012,07,25,15,10,22.70
2012,07,25,15,11,22.60
2012,07,25,15,12,22.60
2012,07,25,15,13,22.70
2012,07,25,15,14,22.80
2012,07,25,15,15,22.90
2012,07,25,15,16,22.90
2012,07,25,15,17,22.90
2012,07,25,15,18,23.00
2012,07,25,15,19,23.00
2012,07,25,15,20,22.80
2012,07,25,15,21,22.50
2012,07,25,15,22,22.30
2012,07,25,15,23,22.20
2012,07,25,15,24,22.10
2012,07,25,15,25,22.10
2012,07,25,15,26,22.30
2012,07,25,15,27,22.40
2012,07,25,15,28,22.40
2012,07,25,15,29,22.40
2012,07,25,15,30,22.50
2012,07,25,15,31,22.50
2012,07,25,15,32,22.30
2012,07,25,15,33,22.20
2012,07,25,15,34,22.10
2012,07,25,15,35,22.10
2012,07,25,15,36,22.10
2012,07,25,15,37,22.10
2012,07,25,15,38,22.20
2012,07,25,15,39,22.30
2012,07,25,15,40,22.30
2012,07,25,15,41,22.20
2012,07,25,15,42,22.30
2012,07,25,15,43,22.30
2012,07,25,15,44,22.30
2012,07,25,15,45,22.40
2012,07,25,15,46,22.40
2012,07,25,15,47,22.50
2012,07,25,15,48,22.50
2012,07,25,15,49,22.30
2012,07,25,15,50,22.20
2012,07,25,15,51,22.10
2012,07,25,15,52,22.00
2012,07,25,15,53,22.00
2012,07,25,15,54,22.00
2012,07,25,15,55,21.90
2012,07,25,15,56,22.00
2012,07,25,15,57,22.00
2012,07,25,15,58,22.10
2012,07,25,15,59,22.20
2012,07,25,16,00,22.30
2012,07,25,16,01,22.50
2012,07,25,16,02,22.60
2012,07,25,16,03,22.70
2012,07,25,16,04,22.80
2012,07,25,16,05,22.80
2012,07,25,16,06,22.90
2012,07,25,16,07,22.90
2012,07,25,16,08,22.90
2012,07,25,16,09,23.00
2012,07,25,16,10,23.10
2012,07,25,16,11,23.10
2012,07,25,16,12,23.20
2012,07,25,16,13,23.10
2012,07,25,16,14,23.00
2012,07,25,16,15,22.90
2012,07,25,16,16,22.80
2012,07,25,16,17,22.70
2012,07,25,16,18,22.70
2012,07,25,16,19,22.70
2012,07,25,16,20,22.60
2012,07,25,16,21,22.50
2012,07,25,16,22,22.40
2012,07,25,16,23,22.20
2012,07,25,16,24,22.20
2012,07,25,16,25,22.20
2012,07,25,16,26,22.30
2012,07,25,16,27,22.40
2012,07,25,16,28,22.60
2012,07,25,16,29,22.70
2012,07,25,16,30,22.90
2012,07,25,16,31,22.90
2012,07,25,16,32,22.90
2012,07,25,16,33,22.90
2012,07,25,16,34,22.90
2012,07,25,16,35,22.90
2012,07,25,16,36,22.80
2012,07,25,16,37,22.80
2012,07,25,16,38,22.80
2012,07,25,16,39,22.80
2012,07,25,16,40,22.80
2012,07,25,16,41,22.80
2012,07,25,16,42,22.80
2012,07,25,16,43,22.80
2012,07,25,16,44,22.70
2012,07,25,16,45,22.70
2012,07,25,16,46,22.70
2012,07,25,16,47,22.80
2012,07,25,16,48,22.90
2012,07,25,16,49,23.00
2012,07,25,16,50,23.10
2012,07,25,16,51,23.30
2012,07,25,16,52,23.40
2012,07,25,16,53,23.40
2012,07,25,16,54,23.40
2012,07,25,16,55,23.40
2012,07,25,16,56,23.30
2012,07,25,16,57,23.30
2012,07,25,16,58,23.20
2012,07,25,16,59,23.20
2012,07,25,17,00,23.20
2012,07,25,17,01,23.10
2012,07,25,17,02,23.00
2012,07,25,17,03,22.90
2012,07,25,17,04,22.90
2012,07,25,17,05,22.90
2012,07,25,17,06,22.90
2012,07,25,17,07,22.90
2012,07,25,17,08,22.90
2012,07,25,17,09,22.90
2012,07,25,17,10,22.90
2012,07,25,17,11,22.90
2012,07,25,17,12,22.90
2012,07,25,17,13,22.90
2012,07,25,17,14,22.90
2012,07,25,17,15,22.90
2012,07,25,17,16,22.90
2012,07,25,17,17,22.90
2012,07,25,17,18,22.90
2012,07,25,17,19,23.00